Time,TemperatureF,DewpointF,PressureIn,WindDirection,WindDirectionDegrees,WindSpeedMPH,WindSpeedGustMPH,Humidity,HourlyPrecipIn,Conditions,Clouds,dailyrainin,SoftwareType,DateUTC
2013-06-30 00:04:00,72.6,55.5,29.97,NNW,330,0.0,2.0,55,0.00,,---,0.00,VWS V14.01,2013-06-30 05:04:00,
2013-06-30 00:09:00,72.2,55.7,29.97,North,349,0.0,2.0,56,0.00,,---,0.00,VWS V14.01,2013-06-30 05:09:00,
2013-06-30 00:14:00,71.6,56.1,29.97,NW,312,0.0,2.0,58,0.00,,---,0.00,VWS V14.01,2013-06-30 05:14:00,
2013-06-30 00:19:00,70.9,55.9,29.98,WNW,298,0.0,0.0,59,0.00,,---,0.00,VWS V14.01,2013-06-30 05:19:00,
2013-06-30 00:24:00,70.3,55.8,29.98,NW,319,0.0,0.0,60,0.00,,---,0.00,VWS V14.01,2013-06-30 05:24:00,
2013-06-30 00:29:00,69.9,55.8,29.97,NW,311,0.0,0.0,61,0.00,,---,0.00,VWS V14.01,2013-06-30 05:29:00,
2013-06-30 00:34:00,69.5,55.9,29.98,NNW,335,0.0,0.0,62,0.00,,---,0.00,VWS V14.01,2013-06-30 05:34:00,
2013-06-30 00:39:00,69.3,55.7,29.98,NW,316,0.0,0.0,62,0.00,,---,0.00,VWS V14.01,2013-06-30 05:39:00,
2013-06-30 00:44:00,68.9,55.8,29.98,NW,325,0.0,0.0,63,0.00,,---,0.00,VWS V14.01,2013-06-30 05:44:00,
2013-06-30 00:49:00,68.8,55.7,29.98,WNW,301,0.0,0.0,63,0.00,,---,0.00,VWS V14.01,2013-06-30 05:49:00,
2013-06-30 00:54:00,68.7,56.0,29.98,North,349,0.0,0.0,64,0.00,,---,0.00,VWS V14.01,2013-06-30 05:54:00,
2013-06-30 00:59:00,68.5,55.9,29.98,NNW,340,0.0,0.0,64,0.00,,---,0.00,VWS V14.01,2013-06-30 05:59:00,
2013-06-30 01:04:00,68.2,56.0,29.97,NE,43,0.0,1.0,65,0.00,,---,0.00,VWS V14.01,2013-06-30 06:04:00,
2013-06-30 01:09:00,68.0,55.8,29.98,NW,313,0.0,1.0,65,0.00,,---,0.00,VWS V14.01,2013-06-30 06:09:00,
2013-06-30 01:14:00,67.9,56.1,29.98,NW,319,0.0,1.0,66,0.00,,---,0.00,VWS V14.01,2013-06-30 06:14:00,
2013-06-30 01:19:00,67.7,56.0,29.98,NW,311,0.0,0.0,66,0.00,,---,0.00,VWS V14.01,2013-06-30 06:19:00,
2013-06-30 01:24:00,67.4,56.1,29.98,NW,311,0.0,0.0,67,0.00,,---,0.00,VWS V14.01,2013-06-30 06:24:00,
2013-06-30 01:29:00,67.3,56.0,29.98,NW,311,0.0,0.0,67,0.00,,---,0.00,VWS V14.01,2013-06-30 06:29:00,
2013-06-30 01:34:00,67.3,56.0,29.98,NW,305,0.0,0.0,67,0.00,,---,0.00,VWS V14.01,2013-06-30 06:34:00,
2013-06-30 01:39:00,67.1,56.2,29.98,WNW,300,0.0,0.0,68,0.00,,---,0.00,VWS V14.01,2013-06-30 06:39:00,
2013-06-30 01:44:00,66.9,56.0,29.98,WNW,295,0.0,0.0,68,0.00,,---,0.00,VWS V14.01,2013-06-30 06:44:00,
2013-06-30 01:49:00,66.6,55.7,29.98,North,349,0.0,0.0,68,0.00,,---,0.00,VWS V14.01,2013-06-30 06:49:00,
2013-06-30 01:54:00,66.5,56.0,29.98,NNW,336,0.0,0.0,69,0.00,,---,0.00,VWS V14.01,2013-06-30 06:54:00,
2013-06-30 01:59:00,66.4,55.9,29.98,NW,309,0.0,0.0,69,0.00,,---,0.00,VWS V14.01,2013-06-30 06:59:00,
2013-06-30 02:04:00,66.3,55.8,29.98,NNW,329,0.0,0.0,69,0.00,,---,0.00,VWS V14.01,2013-06-30 07:04:00,
2013-06-30 02:09:00,66.3,55.8,29.98,NW,311,0.0,0.0,69,0.00,,---,0.00,VWS V14.01,2013-06-30 07:09:00,
2013-06-30 02:14:00,66.2,55.7,29.98,NW,322,0.0,1.0,69,0.00,,---,0.00,VWS V14.01,2013-06-30 07:14:00,
2013-06-30 02:19:00,66.0,56.0,29.98,NW,318,0.0,0.0,70,0.00,,---,0.00,VWS V14.01,2013-06-30 07:19:00,
2013-06-30 02:24:00,65.8,55.8,29.98,North,351,0.0,1.0,70,0.00,,---,0.00,VWS V14.01,2013-06-30 07:24:00,
2013-06-30 02:29:00,65.8,55.8,29.98,North,349,0.0,2.0,70,0.00,,---,0.00,VWS V14.01,2013-06-30 07:29:00,
2013-06-30 02:34:00,65.9,56.2,29.98,NNW,330,0.0,1.0,71,0.00,,---,0.00,VWS V14.01,2013-06-30 07:34:00,
2013-06-30 02:39:00,65.8,56.2,29.98,North,9,2.0,3.0,71,0.00,,---,0.00,VWS V14.01,2013-06-30 07:39:00,
2013-06-30 02:44:00,65.7,56.0,29.98,WNW,302,0.0,4.0,71,0.00,,---,0.00,VWS V14.01,2013-06-30 07:44:00,
2013-06-30 02:49:00,65.6,56.0,29.98,WNW,293,0.0,1.0,71,0.00,,---,0.00,VWS V14.01,2013-06-30 07:49:00,
2013-06-30 02:54:00,65.4,56.2,29.98,NW,313,0.0,1.0,72,0.00,,---,0.00,VWS V14.01,2013-06-30 07:54:00,
2013-06-30 02:59:00,65.0,56.2,29.98,NE,35,0.0,1.0,73,0.00,,---,0.00,VWS V14.01,2013-06-30 07:59:00,
2013-06-30 03:04:00,64.8,56.0,29.98,NW,316,0.0,0.0,73,0.00,,---,0.00,VWS V14.01,2013-06-30 08:04:00,
2013-06-30 03:09:00,64.6,56.1,29.98,WNW,301,2.0,3.0,74,0.00,,---,0.00,VWS V14.01,2013-06-30 08:09:00,
2013-06-30 03:14:00,64.5,56.0,29.98,NNW,335,0.0,3.0,74,0.00,,---,0.00,VWS V14.01,2013-06-30 08:14:00,
2013-06-30 03:19:00,64.3,56.2,29.98,NW,311,0.0,0.0,75,0.00,,---,0.00,VWS V14.01,2013-06-30 08:19:00,
2013-06-30 03:24:00,64.0,55.9,29.98,NW,305,2.0,4.0,75,0.00,,---,0.00,VWS V14.01,2013-06-30 08:24:00,
2013-06-30 03:29:00,63.9,56.2,29.98,NW,311,0.0,4.0,76,0.00,,---,0.00,VWS V14.01,2013-06-30 08:29:00,
2013-06-30 03:34:00,63.8,56.1,29.98,NW,319,0.0,0.0,76,0.00,,---,0.00,VWS V14.01,2013-06-30 08:34:00,
2013-06-30 03:39:00,63.8,56.1,29.98,NW,313,0.0,0.0,76,0.00,,---,0.00,VWS V14.01,2013-06-30 08:39:00,
2013-06-30 03:44:00,63.9,56.2,29.98,WNW,289,0.0,0.0,76,0.00,,---,0.00,VWS V14.01,2013-06-30 08:44:00,
2013-06-30 03:49:00,63.8,56.1,29.98,NW,307,0.0,0.0,76,0.00,,---,0.00,VWS V14.01,2013-06-30 08:49:00,
2013-06-30 03:54:00,63.8,56.1,29.98,West,278,1.0,3.0,76,0.00,,---,0.00,VWS V14.01,2013-06-30 08:54:00,
2013-06-30 03:59:00,63.7,56.0,29.98,NW,308,2.0,4.0,76,0.00,,---,0.00,VWS V14.01,2013-06-30 08:59:00,
2013-06-30 04:04:00,63.6,56.3,29.98,NW,309,0.0,0.0,77,0.00,,---,0.00,VWS V14.01,2013-06-30 09:04:00,
2013-06-30 04:09:00,63.5,56.2,29.98,WNW,300,0.0,1.0,77,0.00,,---,0.00,VWS V14.01,2013-06-30 09:09:00,
2013-06-30 04:14:00,63.5,56.2,29.98,NW,313,2.0,3.0,77,0.00,,---,0.00,VWS V14.01,2013-06-30 09:14:00,
2013-06-30 04:19:00,63.5,56.2,29.98,West,269,1.0,4.0,77,0.00,,---,0.00,VWS V14.01,2013-06-30 09:19:00,
2013-06-30 04:24:00,63.4,56.1,29.98,NW,324,3.0,5.0,77,0.00,,---,0.00,VWS V14.01,2013-06-30 09:24:00,
2013-06-30 04:29:00,63.3,56.3,29.99,West,281,1.0,5.0,78,0.00,,---,0.00,VWS V14.01,2013-06-30 09:29:00,
2013-06-30 04:34:00,63.4,56.4,29.99,WNW,302,0.0,1.0,78,0.00,,---,0.00,VWS V14.01,2013-06-30 09:34:00,
2013-06-30 04:39:00,63.4,56.4,29.99,NW,306,0.0,1.0,78,0.00,,---,0.00,VWS V14.01,2013-06-30 09:39:00,
2013-06-30 04:44:00,63.4,56.4,29.99,WNW,297,0.0,1.0,78,0.00,,---,0.00,VWS V14.01,2013-06-30 09:44:00,
2013-06-30 04:49:00,63.4,56.4,29.99,NNE,23,0.0,0.0,78,0.00,,---,0.00,VWS V14.01,2013-06-30 09:49:00,
2013-06-30 04:54:00,63.4,56.4,29.99,NW,319,0.0,4.0,78,0.00,,---,0.00,VWS V14.01,2013-06-30 09:54:00,
2013-06-30 04:59:00,63.4,56.4,29.99,NW,305,0.0,6.0,78,0.00,,---,0.00,VWS V14.01,2013-06-30 09:59:00,
2013-06-30 05:04:00,63.3,56.3,29.99,WNW,302,3.0,6.0,78,0.00,,---,0.00,VWS V14.01,2013-06-30 10:04:00,
2013-06-30 05:09:00,63.2,56.6,29.99,NW,321,3.0,6.0,79,0.00,,---,0.00,VWS V14.01,2013-06-30 10:09:00,
2013-06-30 05:14:00,62.9,56.3,30.00,NW,314,3.0,6.0,79,0.00,,---,0.00,VWS V14.01,2013-06-30 10:14:00,
2013-06-30 05:19:00,62.7,56.5,30.00,ENE,71,1.0,3.0,80,0.00,,---,0.00,VWS V14.01,2013-06-30 10:19:00,
2013-06-30 05:23:00,62.6,56.3,30.00,NW,322,0.0,3.0,80,0.00,,---,0.00,VWS V14.01,2013-06-30 10:23:00,
2013-06-30 05:28:00,62.4,56.2,30.00,NNW,329,0.0,3.0,80,0.00,,---,0.00,VWS V14.01,2013-06-30 10:28:00,
2013-06-30 05:33:00,62.4,56.5,30.00,NW,313,0.0,0.0,81,0.00,,---,0.00,VWS V14.01,2013-06-30 10:33:00,
2013-06-30 05:38:00,62.3,56.4,30.00,West,274,0.0,3.0,81,0.00,,---,0.00,VWS V14.01,2013-06-30 10:38:00,
2013-06-30 05:43:00,62.1,56.2,30.00,NW,305,0.0,3.0,81,0.00,,---,0.00,VWS V14.01,2013-06-30 10:43:00,
2013-06-30 05:48:00,61.8,56.2,30.00,NW,313,0.0,0.0,82,0.00,,---,0.00,VWS V14.01,2013-06-30 10:48:00,
2013-06-30 05:53:00,61.7,56.2,30.01,NNW,327,0.0,0.0,82,0.00,,---,0.00,VWS V14.01,2013-06-30 10:53:00,
2013-06-30 05:58:00,61.6,56.1,30.01,NNE,25,1.0,4.0,82,0.00,,---,0.00,VWS V14.01,2013-06-30 10:58:00,
2013-06-30 06:03:00,61.5,56.3,30.01,North,353,0.0,4.0,83,0.00,,---,0.00,VWS V14.01,2013-06-30 11:03:00,
2013-06-30 06:08:00,61.4,56.2,30.01,NNW,330,0.0,4.0,83,0.00,,---,0.00,VWS V14.01,2013-06-30 11:08:00,
2013-06-30 06:13:00,61.4,56.2,30.01,NW,311,0.0,4.0,83,0.00,,---,0.00,VWS V14.01,2013-06-30 11:13:00,
2013-06-30 06:18:00,61.3,56.1,30.02,NW,314,0.0,0.0,83,0.00,,---,0.00,VWS V14.01,2013-06-30 11:18:00,
2013-06-30 06:23:00,61.4,56.2,30.02,NW,322,0.0,0.0,83,0.00,,---,0.00,VWS V14.01,2013-06-30 11:23:00,
2013-06-30 06:28:00,61.4,56.2,30.01,NW,322,0.0,2.0,83,0.00,,---,0.00,VWS V14.01,2013-06-30 11:28:00,
2013-06-30 06:33:00,61.4,56.2,30.02,WNW,301,0.0,0.0,83,0.00,,---,0.00,VWS V14.01,2013-06-30 11:33:00,
2013-06-30 06:38:00,61.6,56.4,30.02,NW,325,0.0,0.0,83,0.00,,---,0.00,VWS V14.01,2013-06-30 11:38:00,
2013-06-30 06:43:00,61.7,56.5,30.03,NW,314,0.0,1.0,83,0.00,,---,0.00,VWS V14.01,2013-06-30 11:43:00,
2013-06-30 06:48:00,62.1,56.9,30.03,WNW,293,0.0,1.0,83,0.00,,---,0.00,VWS V14.01,2013-06-30 11:48:00,
2013-06-30 06:53:00,62.5,56.9,30.03,WNW,289,0.0,1.0,82,0.00,,---,0.00,VWS V14.01,2013-06-30 11:53:00,
2013-06-30 06:58:00,62.9,57.0,30.03,NW,314,0.0,1.0,81,0.00,,---,0.00,VWS V14.01,2013-06-30 11:58:00,
2013-06-30 07:03:00,63.2,57.3,30.03,NW,307,0.0,0.0,81,0.00,,---,0.00,VWS V14.01,2013-06-30 12:03:00,
2013-06-30 07:08:00,63.5,57.2,30.03,NW,309,0.0,1.0,80,0.00,,---,0.00,VWS V14.01,2013-06-30 12:08:00,
2013-06-30 07:13:00,63.7,57.4,30.04,NW,316,0.0,1.0,80,0.00,,---,0.00,VWS V14.01,2013-06-30 12:13:00,
2013-06-30 07:18:00,63.7,57.4,30.04,NW,314,2.0,5.0,80,0.00,,---,0.00,VWS V14.01,2013-06-30 12:18:00,
2013-06-30 07:23:00,63.8,57.5,30.04,NW,311,1.0,5.0,80,0.00,,---,0.00,VWS V14.01,2013-06-30 12:23:00,
2013-06-30 07:28:00,64.1,57.8,30.04,NNW,345,1.0,5.0,80,0.00,,---,0.00,VWS V14.01,2013-06-30 12:28:00,
2013-06-30 07:33:00,64.5,57.8,30.05,NW,307,4.0,4.0,79,0.00,,---,0.00,VWS V14.01,2013-06-30 12:33:00,
2013-06-30 07:38:00,64.5,57.8,30.05,NW,325,4.0,6.0,79,0.00,,---,0.00,VWS V14.01,2013-06-30 12:38:00,
2013-06-30 07:43:00,64.6,58.0,30.05,NW,307,3.0,6.0,79,0.00,,---,0.00,VWS V14.01,2013-06-30 12:43:00,
2013-06-30 07:48:00,64.8,58.1,30.05,North,349,3.0,5.0,79,0.00,,---,0.00,VWS V14.01,2013-06-30 12:48:00,
2013-06-30 07:53:00,65.0,58.3,30.06,NW,316,8.0,8.0,79,0.00,,---,0.00,VWS V14.01,2013-06-30 12:53:00,
2013-06-30 07:58:00,65.3,58.3,30.05,NW,319,4.0,9.0,78,0.00,,---,0.00,VWS V14.01,2013-06-30 12:58:00,
2013-06-30 08:03:00,65.7,58.3,30.05,WNW,288,2.0,7.0,77,0.00,,---,0.00,VWS V14.01,2013-06-30 13:03:00,
2013-06-30 08:08:00,66.2,58.8,30.05,NNE,19,0.0,7.0,77,0.00,,---,0.00,VWS V14.01,2013-06-30 13:08:00,
2013-06-30 08:13:00,66.8,59.0,30.05,NW,315,1.0,7.0,76,0.00,,---,0.00,VWS V14.01,2013-06-30 13:13:00,
2013-06-30 08:18:00,67.0,58.8,30.06,NNW,331,2.0,5.0,75,0.00,,---,0.00,VWS V14.01,2013-06-30 13:18:00,
2013-06-30 08:23:00,67.2,59.0,30.06,North,349,5.0,7.0,75,0.00,,---,0.00,VWS V14.01,2013-06-30 13:23:00,
2013-06-30 08:28:00,67.7,59.1,30.06,NW,319,7.0,7.0,74,0.00,,---,0.00,VWS V14.01,2013-06-30 13:28:00,
2013-06-30 08:33:00,68.0,59.4,30.06,NW,304,2.0,4.0,74,0.00,,---,0.00,VWS V14.01,2013-06-30 13:33:00,
2013-06-30 08:38:00,68.5,59.5,30.06,NNW,340,0.0,4.0,73,0.00,,---,0.00,VWS V14.01,2013-06-30 13:38:00,
2013-06-30 08:43:00,69.1,59.7,30.06,NW,305,2.0,5.0,72,0.00,,---,0.00,VWS V14.01,2013-06-30 13:43:00,
2013-06-30 08:48:00,69.2,59.4,30.06,NW,316,0.0,4.0,71,0.00,,---,0.00,VWS V14.01,2013-06-30 13:48:00,
2013-06-30 08:53:00,69.7,59.5,30.06,NW,321,2.0,6.0,70,0.00,,---,0.00,VWS V14.01,2013-06-30 13:53:00,
2013-06-30 08:58:00,70.3,60.1,30.06,NE,42,2.0,6.0,70,0.00,,---,0.00,VWS V14.01,2013-06-30 13:58:00,
2013-06-30 09:03:00,70.8,59.7,30.07,North,11,0.0,1.0,68,0.00,,---,0.00,VWS V14.01,2013-06-30 14:03:00,
2013-06-30 09:08:00,71.2,60.1,30.06,NE,49,2.0,5.0,68,0.00,,---,0.00,VWS V14.01,2013-06-30 14:08:00,
2013-06-30 09:13:00,71.7,59.8,30.06,NE,49,4.0,5.0,66,0.00,,---,0.00,VWS V14.01,2013-06-30 14:13:00,
2013-06-30 09:18:00,71.6,59.7,30.06,NW,319,2.0,4.0,66,0.00,,---,0.00,VWS V14.01,2013-06-30 14:18:00,
2013-06-30 09:23:00,71.9,59.9,30.06,WNW,302,3.0,4.0,66,0.00,,---,0.00,VWS V14.01,2013-06-30 14:23:00,
2013-06-30 09:28:00,72.3,60.3,30.06,ENE,68,2.0,6.0,66,0.00,,---,0.00,VWS V14.01,2013-06-30 14:28:00,
2013-06-30 09:33:00,72.8,59.9,30.06,ENE,77,3.0,5.0,64,0.00,,---,0.00,VWS V14.01,2013-06-30 14:33:00,
2013-06-30 09:38:00,72.9,60.0,30.06,North,1,2.0,5.0,64,0.00,,---,0.00,VWS V14.01,2013-06-30 14:38:00,
2013-06-30 09:43:00,73.1,59.8,30.06,NE,43,0.0,6.0,63,0.00,,---,0.00,VWS V14.01,2013-06-30 14:43:00,
2013-06-30 09:48:00,73.5,59.7,30.06,NW,322,0.0,4.0,62,0.00,,---,0.00,VWS V14.01,2013-06-30 14:48:00,
2013-06-30 09:53:00,74.1,59.3,30.06,East,101,0.0,4.0,60,0.00,,---,0.00,VWS V14.01,2013-06-30 14:53:00,
2013-06-30 09:58:00,74.5,58.8,30.06,NNE,33,3.0,4.0,58,0.00,,---,0.00,VWS V14.01,2013-06-30 14:58:00,
2013-06-30 10:03:00,74.5,59.2,30.06,NW,316,3.0,5.0,59,0.00,,---,0.00,VWS V14.01,2013-06-30 15:03:00,
2013-06-30 10:08:00,74.8,59.0,30.06,NW,318,0.0,5.0,58,0.00,,---,0.00,VWS V14.01,2013-06-30 15:08:00,
2013-06-30 10:13:00,75.1,59.3,30.06,East,84,2.0,5.0,58,0.00,,---,0.00,VWS V14.01,2013-06-30 15:13:00,
2013-06-30 10:18:00,75.6,59.3,30.06,NNW,340,0.0,4.0,57,0.00,,---,0.00,VWS V14.01,2013-06-30 15:18:00,
2013-06-30 10:23:00,75.8,59.0,30.06,North,359,5.0,5.0,56,0.00,,---,0.00,VWS V14.01,2013-06-30 15:23:00,
2013-06-30 10:28:00,75.9,59.1,30.06,East,80,2.0,6.0,56,0.00,,---,0.00,VWS V14.01,2013-06-30 15:28:00,
2013-06-30 10:33:00,76.4,59.1,30.06,ENE,58,4.0,5.0,55,0.00,,---,0.00,VWS V14.01,2013-06-30 15:33:00,
2013-06-30 10:38:00,76.3,59.0,30.06,ENE,70,2.0,6.0,55,0.00,,---,0.00,VWS V14.01,2013-06-30 15:38:00,
2013-06-30 10:43:00,76.4,58.0,30.06,NNW,340,3.0,6.0,53,0.00,,---,0.00,VWS V14.01,2013-06-30 15:43:00,
2013-06-30 10:48:00,76.1,58.3,30.06,NE,53,4.0,8.0,54,0.00,,---,0.00,VWS V14.01,2013-06-30 15:48:00,
2013-06-30 10:53:00,76.2,58.4,30.06,NNE,23,3.0,8.0,54,0.00,,---,0.00,VWS V14.01,2013-06-30 15:53:00,
2013-06-30 10:58:00,76.3,58.5,30.06,ENE,64,3.0,8.0,54,0.00,,---,0.00,VWS V14.01,2013-06-30 15:58:00,
2013-06-30 11:03:00,77.0,59.6,30.05,NE,35,2.0,6.0,55,0.00,,---,0.00,VWS V14.01,2013-06-30 16:03:00,
2013-06-30 11:08:00,77.4,58.4,30.06,SE,131,2.0,10.0,52,0.00,,---,0.00,VWS V14.01,2013-06-30 16:08:00,
2013-06-30 11:13:00,78.0,57.3,30.06,NE,50,6.0,10.0,49,0.00,,---,0.00,VWS V14.01,2013-06-30 16:13:00,
2013-06-30 11:18:00,77.9,57.2,30.06,NW,310,5.0,10.0,49,0.00,,---,0.00,VWS V14.01,2013-06-30 16:18:00,
2013-06-30 11:23:00,77.8,57.1,30.05,NE,53,3.0,10.0,49,0.00,,---,0.00,VWS V14.01,2013-06-30 16:23:00,
2013-06-30 11:28:00,78.6,57.9,30.05,NE,53,3.0,10.0,49,0.00,,---,0.00,VWS V14.01,2013-06-30 16:28:00,
2013-06-30 11:32:00,78.5,57.2,30.06,NNE,30,4.0,9.0,48,0.00,,---,0.00,VWS V14.01,2013-06-30 16:32:00,
2013-06-30 11:38:00,78.4,55.3,30.05,NE,55,8.0,13.0,45,0.00,,---,0.00,VWS V14.01,2013-06-30 16:38:00,
2013-06-30 11:43:00,78.9,57.0,30.05,SW,226,1.0,13.0,47,0.00,,---,0.00,VWS V14.01,2013-06-30 16:43:00,
2013-06-30 11:48:00,79.0,55.9,30.05,NE,48,11.0,14.0,45,0.00,,---,0.00,VWS V14.01,2013-06-30 16:48:00,
2013-06-30 11:53:00,78.1,56.2,30.06,ENE,59,4.0,14.0,47,0.00,,---,0.00,VWS V14.01,2013-06-30 16:53:00,
2013-06-30 11:58:00,78.4,56.5,30.05,North,6,6.0,14.0,47,0.00,,---,0.00,VWS V14.01,2013-06-30 16:58:00,
2013-06-30 12:02:00,78.4,56.5,30.05,NE,35,1.0,9.0,47,0.00,,---,0.00,VWS V14.01,2013-06-30 17:02:00,
2013-06-30 12:07:00,78.8,56.3,30.05,NE,55,6.0,10.0,46,0.00,,---,0.00,VWS V14.01,2013-06-30 17:07:00,
2013-06-30 12:12:00,79.2,55.4,30.05,NE,53,5.0,12.0,44,0.00,,---,0.00,VWS V14.01,2013-06-30 17:12:00,
2013-06-30 12:17:00,79.1,54.1,30.05,ENE,68,9.0,14.0,42,0.00,,---,0.00,VWS V14.01,2013-06-30 17:17:00,
2013-06-30 12:22:00,79.0,55.2,30.05,East,90,4.0,14.0,44,0.00,,---,0.00,VWS V14.01,2013-06-30 17:22:00,
2013-06-30 12:27:00,79.2,55.4,30.05,NW,308,6.0,14.0,44,0.00,,---,0.00,VWS V14.01,2013-06-30 17:27:00,
2013-06-30 12:32:00,79.4,55.0,30.05,NE,53,15.0,15.0,43,0.00,,---,0.00,VWS V14.01,2013-06-30 17:32:00,
2013-06-30 12:37:00,79.6,55.2,30.05,NE,39,5.0,15.0,43,0.00,,---,0.00,VWS V14.01,2013-06-30 17:37:00,
2013-06-30 12:42:00,79.7,55.2,30.04,NE,47,6.0,15.0,43,0.00,,---,0.00,VWS V14.01,2013-06-30 17:42:00,
2013-06-30 12:47:00,80.2,55.7,30.04,NW,317,4.0,6.0,43,0.00,,---,0.00,VWS V14.01,2013-06-30 17:47:00,
2013-06-30 12:52:00,80.4,55.2,30.04,NW,317,5.0,12.0,42,0.00,,---,0.00,VWS V14.01,2013-06-30 17:52:00,
2013-06-30 12:57:00,80.7,54.8,30.04,East,100,2.0,12.0,41,0.00,,---,0.00,VWS V14.01,2013-06-30 17:57:00,
2013-06-30 13:02:00,81.2,56.0,30.04,ENE,60,5.0,9.0,42,0.00,,---,0.00,VWS V14.01,2013-06-30 18:02:00,
2013-06-30 13:07:00,81.5,55.5,30.04,NNW,346,9.0,14.0,41,0.00,,---,0.00,VWS V14.01,2013-06-30 18:07:00,
2013-06-30 13:12:00,81.4,54.8,30.04,NW,324,11.0,14.0,40,0.00,,---,0.00,VWS V14.01,2013-06-30 18:12:00,
2013-06-30 13:17:00,81.4,54.8,30.03,NNE,26,3.0,8.0,40,0.00,,---,0.00,VWS V14.01,2013-06-30 18:17:00,
2013-06-30 13:22:00,81.2,53.9,30.03,NE,42,4.0,12.0,39,0.00,,---,0.00,VWS V14.01,2013-06-30 18:22:00,
2013-06-30 13:27:00,80.8,54.9,30.03,NE,36,7.0,12.0,41,0.00,,---,0.00,VWS V14.01,2013-06-30 18:27:00,
2013-06-30 13:32:00,80.6,54.8,30.04,NE,46,4.0,10.0,41,0.00,,---,0.00,VWS V14.01,2013-06-30 18:32:00,
2013-06-30 13:37:00,80.6,55.4,30.03,NNW,340,2.0,12.0,42,0.00,,---,0.00,VWS V14.01,2013-06-30 18:37:00,
2013-06-30 13:42:00,80.1,54.3,30.04,NE,35,6.0,12.0,41,0.00,,---,0.00,VWS V14.01,2013-06-30 18:42:00,
2013-06-30 13:47:00,79.8,54.7,30.03,NE,56,5.0,10.0,42,0.00,,---,0.00,VWS V14.01,2013-06-30 18:47:00,
2013-06-30 13:52:00,79.5,55.1,30.03,NNE,30,7.0,13.0,43,0.00,,---,0.00,VWS V14.01,2013-06-30 18:52:00,
2013-06-30 13:57:00,80.0,54.9,30.03,NNW,330,6.0,13.0,42,0.00,,---,0.00,VWS V14.01,2013-06-30 18:57:00,
2013-06-30 14:02:00,80.2,53.0,30.03,ENE,65,8.0,14.0,39,0.00,,---,0.00,VWS V14.01,2013-06-30 19:02:00,
2013-06-30 14:07:00,80.2,53.7,30.03,NNW,337,5.0,14.0,40,0.00,,---,0.00,VWS V14.01,2013-06-30 19:07:00,
2013-06-30 14:12:00,80.5,54.0,30.03,ENE,70,8.0,14.0,40,0.00,,---,0.00,VWS V14.01,2013-06-30 19:12:00,
2013-06-30 14:17:00,79.9,54.8,30.03,NNW,342,4.0,10.0,42,0.00,,---,0.00,VWS V14.01,2013-06-30 19:17:00,
2013-06-30 14:22:00,80.8,54.9,30.03,NNE,33,6.0,10.0,41,0.00,,---,0.00,VWS V14.01,2013-06-30 19:22:00,
2013-06-30 14:27:00,80.9,54.3,30.03,NNE,20,7.0,15.0,40,0.00,,---,0.00,VWS V14.01,2013-06-30 19:27:00,
2013-06-30 14:32:00,80.7,54.8,30.03,ENE,60,6.0,8.0,41,0.00,,---,0.00,VWS V14.01,2013-06-30 19:32:00,
2013-06-30 14:37:00,81.1,55.2,30.03,East,98,5.0,15.0,41,0.00,,---,0.00,VWS V14.01,2013-06-30 19:37:00,
2013-06-30 14:42:00,81.4,54.8,30.03,ENE,57,3.0,15.0,40,0.00,,---,0.00,VWS V14.01,2013-06-30 19:42:00,
2013-06-30 14:43:00,81.6,55.0,30.03,ENE,71,6.0,15.0,40,0.00,,---,0.00,VWS V14.01,2013-06-30 19:43:00,
2013-06-30 14:48:00,81.6,55.0,30.03,NW,319,5.0,14.0,40,0.00,,---,0.00,VWS V14.01,2013-06-30 19:48:00,
2013-06-30 14:53:00,80.6,54.1,30.03,NE,50,3.0,15.0,40,0.00,,---,0.00,VWS V14.01,2013-06-30 19:53:00,
2013-06-30 14:58:00,81.0,54.4,30.03,ENE,68,5.0,15.0,40,0.00,,---,0.00,VWS V14.01,2013-06-30 19:58:00,
2013-06-30 15:03:00,81.6,53.6,30.03,WNW,288,1.0,8.0,38,0.00,,---,0.00,VWS V14.01,2013-06-30 20:03:00,
2013-06-30 15:08:00,81.6,54.3,30.03,NW,322,5.0,9.0,39,0.00,,---,0.00,VWS V14.01,2013-06-30 20:08:00,
2013-06-30 15:09:00,81.5,54.2,30.03,NNW,330,3.0,9.0,39,0.00,,---,0.00,VWS V14.01,2013-06-30 20:09:00,
2013-06-30 15:14:00,81.8,55.1,30.03,NE,51,11.0,11.0,40,0.00,,---,0.00,VWS V14.01,2013-06-30 20:14:00,
2013-06-30 15:19:00,81.6,54.3,30.03,ENE,60,7.0,11.0,39,0.00,,---,0.00,VWS V14.01,2013-06-30 20:19:00,
2013-06-30 15:24:00,81.6,55.0,30.03,WNW,298,8.0,13.0,40,0.00,,---,0.00,VWS V14.01,2013-06-30 20:24:00,
2013-06-30 15:29:00,81.3,54.0,30.03,NE,46,11.0,15.0,39,0.00,,---,0.00,VWS V14.01,2013-06-30 20:29:00,
2013-06-30 15:34:00,81.1,53.8,30.03,NE,53,11.0,12.0,39,0.00,,---,0.00,VWS V14.01,2013-06-30 20:34:00,
2013-06-30 15:39:00,81.2,53.9,30.03,ENE,58,8.0,12.0,39,0.00,,---,0.00,VWS V14.01,2013-06-30 20:39:00,
2013-06-30 15:44:00,81.4,53.4,30.03,ENE,60,6.0,14.0,38,0.00,,---,0.00,VWS V14.01,2013-06-30 20:44:00,
2013-06-30 15:49:00,80.9,52.9,30.03,ENE,63,4.0,12.0,38,0.00,,---,0.00,VWS V14.01,2013-06-30 20:49:00,
2013-06-30 15:54:00,81.3,54.0,30.03,NE,53,8.0,15.0,39,0.00,,---,0.00,VWS V14.01,2013-06-30 20:54:00,
2013-06-30 15:59:00,81.7,53.7,30.03,NE,55,10.0,15.0,38,0.00,,---,0.00,VWS V14.01,2013-06-30 20:59:00,
2013-06-30 16:03:00,81.5,54.2,30.03,ENE,69,4.0,12.0,39,0.00,,---,0.00,VWS V14.01,2013-06-30 21:03:00,
2013-06-30 16:08:00,81.2,53.9,30.04,WNW,294,3.0,16.0,39,0.00,,---,0.00,VWS V14.01,2013-06-30 21:08:00,
2013-06-30 16:13:00,81.3,54.0,30.03,NE,53,6.0,16.0,39,0.00,,---,0.00,VWS V14.01,2013-06-30 21:13:00,
2013-06-30 16:18:00,81.9,54.5,30.03,ENE,62,6.0,8.0,39,0.00,,---,0.00,VWS V14.01,2013-06-30 21:18:00,
2013-06-30 16:23:00,82.2,54.8,30.03,ENE,70,1.0,10.0,39,0.00,,---,0.00,VWS V14.01,2013-06-30 21:23:00,
2013-06-30 16:28:00,81.7,52.9,30.03,NNW,346,4.0,13.0,37,0.00,,---,0.00,VWS V14.01,2013-06-30 21:28:00,
2013-06-30 16:33:00,81.9,53.1,30.03,ESE,120,7.0,10.0,37,0.00,,---,0.00,VWS V14.01,2013-06-30 21:33:00,
2013-06-30 16:38:00,81.9,53.8,30.03,ENE,71,6.0,11.0,38,0.00,,---,0.00,VWS V14.01,2013-06-30 21:38:00,
2013-06-30 16:43:00,81.3,53.3,30.03,ENE,60,7.0,16.0,38,0.00,,---,0.00,VWS V14.01,2013-06-30 21:43:00,
2013-06-30 16:44:00,81.3,53.3,30.03,NE,50,9.0,16.0,38,0.00,,---,0.00,VWS V14.01,2013-06-30 21:44:00,
2013-06-30 16:49:00,81.2,53.2,30.03,ENE,67,3.0,12.0,38,0.00,,---,0.00,VWS V14.01,2013-06-30 21:49:00,
2013-06-30 16:54:00,81.6,52.8,30.03,East,87,4.0,14.0,37,0.00,,---,0.00,VWS V14.01,2013-06-30 21:54:00,
2013-06-30 16:59:00,81.1,52.4,30.03,East,87,5.0,14.0,37,0.00,,---,0.00,VWS V14.01,2013-06-30 21:59:00,
2013-06-30 17:03:00,81.1,53.1,30.03,ENE,58,8.0,10.0,38,0.00,,---,0.00,VWS V14.01,2013-06-30 22:03:00,
2013-06-30 17:08:00,81.2,53.2,30.03,NE,39,4.0,13.0,38,0.00,,---,0.00,VWS V14.01,2013-06-30 22:08:00,
2013-06-30 17:13:00,81.3,53.3,30.03,NE,55,8.0,13.0,38,0.00,,---,0.00,VWS V14.01,2013-06-30 22:13:00,
2013-06-30 17:18:00,81.0,52.3,30.03,ENE,65,2.0,10.0,37,0.00,,---,0.00,VWS V14.01,2013-06-30 22:18:00,
2013-06-30 17:23:00,81.4,52.7,30.03,NE,50,3.0,12.0,37,0.00,,---,0.00,VWS V14.01,2013-06-30 22:23:00,
2013-06-30 17:28:00,81.2,52.5,30.03,NE,53,3.0,12.0,37,0.00,,---,0.00,VWS V14.01,2013-06-30 22:28:00,
2013-06-30 17:33:00,81.2,51.7,30.03,NE,49,10.0,12.0,36,0.00,,---,0.00,VWS V14.01,2013-06-30 22:33:00,
2013-06-30 17:38:00,81.2,52.5,30.03,ENE,64,5.0,12.0,37,0.00,,---,0.00,VWS V14.01,2013-06-30 22:38:00,
2013-06-30 17:43:00,81.4,52.7,30.03,NNW,329,5.0,12.0,37,0.00,,---,0.00,VWS V14.01,2013-06-30 22:43:00,
2013-06-30 17:48:00,81.1,50.9,30.03,NE,35,14.0,14.0,35,0.00,,---,0.00,VWS V14.01,2013-06-30 22:48:00,
2013-06-30 17:53:00,80.6,51.2,30.03,North,354,8.0,14.0,36,0.00,,---,0.00,VWS V14.01,2013-06-30 22:53:00,
2013-06-30 17:58:00,81.0,52.3,30.03,East,79,2.0,14.0,37,0.00,,---,0.00,VWS V14.01,2013-06-30 22:58:00,
2013-06-30 17:59:00,81.1,51.7,30.03,NE,43,5.0,14.0,36,0.00,,---,0.00,VWS V14.01,2013-06-30 22:59:00,
2013-06-30 18:04:00,80.5,51.1,30.03,ENE,65,6.0,13.0,36,0.00,,---,0.00,VWS V14.01,2013-06-30 23:04:00,
2013-06-30 18:09:00,80.6,52.0,30.03,ESE,120,7.0,13.0,37,0.00,,---,0.00,VWS V14.01,2013-06-30 23:09:00,
2013-06-30 18:14:00,80.7,52.0,30.03,NE,48,9.0,13.0,37,0.00,,---,0.00,VWS V14.01,2013-06-30 23:14:00,
2013-06-30 18:19:00,80.4,49.5,30.03,NNE,32,9.0,13.0,34,0.00,,---,0.00,VWS V14.01,2013-06-30 23:19:00,
2013-06-30 18:24:00,80.0,49.1,30.03,NE,36,4.0,13.0,34,0.00,,---,0.00,VWS V14.01,2013-06-30 23:24:00,
2013-06-30 18:29:00,79.9,49.8,30.03,ENE,58,5.0,13.0,35,0.00,,---,0.00,VWS V14.01,2013-06-30 23:29:00,
2013-06-30 18:34:00,79.9,50.6,30.03,ENE,62,2.0,10.0,36,0.00,,---,0.00,VWS V14.01,2013-06-30 23:34:00,
2013-06-30 18:39:00,80.0,50.7,30.03,ENE,59,3.0,10.0,36,0.00,,---,0.00,VWS V14.01,2013-06-30 23:39:00,
2013-06-30 18:44:00,80.2,51.6,30.03,NNE,33,5.0,10.0,37,0.00,,---,0.00,VWS V14.01,2013-06-30 23:44:00,
2013-06-30 18:49:00,79.9,51.3,30.03,ENE,77,6.0,13.0,37,0.00,,---,0.00,VWS V14.01,2013-06-30 23:49:00,
2013-06-30 18:54:00,79.6,51.8,30.03,ESE,104,2.0,13.0,38,0.00,,---,0.00,VWS V14.01,2013-06-30 23:54:00,
2013-06-30 18:59:00,79.5,52.4,30.03,NNE,14,4.0,13.0,39,0.00,,---,0.00,VWS V14.01,2013-06-30 23:59:00,
2013-06-30 19:04:00,79.2,53.5,30.03,ENE,65,9.0,13.0,41,0.00,,---,0.00,VWS V14.01,2013-07-01 00:04:00,
2013-06-30 19:09:00,79.0,54.0,30.03,ENE,62,2.0,13.0,42,0.00,,---,0.00,VWS V14.01,2013-07-01 00:09:00,
2013-06-30 19:14:00,78.9,53.9,30.03,NE,45,4.0,13.0,42,0.00,,---,0.00,VWS V14.01,2013-07-01 00:14:00,
2013-06-30 19:19:00,78.7,54.3,30.03,NNE,20,6.0,10.0,43,0.00,,---,0.00,VWS V14.01,2013-07-01 00:19:00,
2013-06-30 19:24:00,78.5,54.2,30.03,ENE,58,7.0,10.0,43,0.00,,---,0.00,VWS V14.01,2013-07-01 00:24:00,
2013-06-30 19:29:00,78.3,54.6,30.04,NE,44,5.0,10.0,44,0.00,,---,0.00,VWS V14.01,2013-07-01 00:29:00,
2013-06-30 19:34:00,78.1,54.4,30.04,ENE,58,5.0,9.0,44,0.00,,---,0.00,VWS V14.01,2013-07-01 00:34:00,
2013-06-30 19:39:00,77.9,54.9,30.04,ENE,74,2.0,9.0,45,0.00,,---,0.00,VWS V14.01,2013-07-01 00:39:00,
2013-06-30 19:44:00,77.7,54.1,30.04,East,79,6.0,9.0,44,0.00,,---,0.00,VWS V14.01,2013-07-01 00:44:00,
2013-06-30 19:49:00,77.4,53.8,30.04,NNE,23,1.0,11.0,44,0.00,,---,0.00,VWS V14.01,2013-07-01 00:49:00,
2013-06-30 19:54:00,77.2,54.2,30.04,East,83,2.0,11.0,45,0.00,,---,0.00,VWS V14.01,2013-07-01 00:54:00,
2013-06-30 19:59:00,77.0,53.4,30.04,ENE,59,4.0,12.0,44,0.00,,---,0.00,VWS V14.01,2013-07-01 00:59:00,
2013-06-30 20:04:00,76.8,53.9,30.04,East,96,5.0,7.0,45,0.00,,---,0.00,VWS V14.01,2013-07-01 01:04:00,
2013-06-30 20:09:00,76.4,54.1,30.05,NE,53,3.0,10.0,46,0.00,,---,0.00,VWS V14.01,2013-07-01 01:09:00,
2013-06-30 20:14:00,76.2,53.9,30.05,ENE,58,3.0,10.0,46,0.00,,---,0.00,VWS V14.01,2013-07-01 01:14:00,
2013-06-30 20:19:00,76.0,53.8,30.05,NNW,328,2.0,7.0,46,0.00,,---,0.00,VWS V14.01,2013-07-01 01:19:00,
2013-06-30 20:24:00,75.8,54.2,30.05,East,84,3.0,7.0,47,0.00,,---,0.00,VWS V14.01,2013-07-01 01:24:00,
2013-06-30 20:29:00,75.5,53.9,30.06,ENE,62,3.0,7.0,47,0.00,,---,0.00,VWS V14.01,2013-07-01 01:29:00,
2013-06-30 20:34:00,75.3,53.1,30.06,ENE,62,5.0,7.0,46,0.00,,---,0.00,VWS V14.01,2013-07-01 01:34:00,
2013-06-30 20:39:00,74.9,53.3,30.06,East,79,3.0,9.0,47,0.00,,---,0.00,VWS V14.01,2013-07-01 01:39:00,
2013-06-30 20:44:00,74.6,53.1,30.06,NNW,328,2.0,9.0,47,0.00,,---,0.00,VWS V14.01,2013-07-01 01:44:00,
2013-06-30 20:49:00,74.3,53.4,30.06,NE,52,2.0,8.0,48,0.00,,---,0.00,VWS V14.01,2013-07-01 01:49:00,
2013-06-30 20:54:00,74.0,53.1,30.06,NE,52,1.0,8.0,48,0.00,,---,0.00,VWS V14.01,2013-07-01 01:54:00,
2013-06-30 20:59:00,73.7,53.4,30.06,NE,43,4.0,8.0,49,0.00,,---,0.00,VWS V14.01,2013-07-01 01:59:00,
2013-06-30 21:04:00,73.4,53.1,30.06,ENE,58,5.0,6.0,49,0.00,,---,0.00,VWS V14.01,2013-07-01 02:04:00,
2013-06-30 21:09:00,73.2,53.5,30.06,ENE,62,3.0,8.0,50,0.00,,---,0.00,VWS V14.01,2013-07-01 02:09:00,
2013-06-30 21:14:00,72.9,52.6,30.06,ENE,58,2.0,8.0,49,0.00,,---,0.00,VWS V14.01,2013-07-01 02:14:00,
2013-06-30 21:19:00,72.7,52.5,30.06,ENE,64,3.0,6.0,49,0.00,,---,0.00,VWS V14.01,2013-07-01 02:19:00,
2013-06-30 21:24:00,72.6,52.9,30.07,ESE,117,2.0,6.0,50,0.00,,---,0.00,VWS V14.01,2013-07-01 02:24:00,
2013-06-30 21:29:00,72.4,52.7,30.07,ENE,58,2.0,7.0,50,0.00,,---,0.00,VWS V14.01,2013-07-01 02:29:00,
2013-06-30 21:34:00,72.2,52.5,30.07,NE,43,6.0,9.0,50,0.00,,---,0.00,VWS V14.01,2013-07-01 02:34:00,
2013-06-30 21:39:00,72.0,52.4,30.07,ENE,65,4.0,9.0,50,0.00,,---,0.00,VWS V14.01,2013-07-01 02:39:00,
2013-06-30 21:44:00,71.7,52.6,30.07,NE,47,3.0,9.0,51,0.00,,---,0.00,VWS V14.01,2013-07-01 02:44:00,
2013-06-30 21:49:00,71.4,52.3,30.08,NE,54,4.0,6.0,51,0.00,,---,0.00,VWS V14.01,2013-07-01 02:49:00,
2013-06-30 21:54:00,71.2,52.7,30.08,ENE,65,1.0,6.0,52,0.00,,---,0.00,VWS V14.01,2013-07-01 02:54:00,
2013-06-30 21:59:00,71.0,53.0,30.08,NE,48,7.0,7.0,53,0.00,,---,0.00,VWS V14.01,2013-07-01 02:59:00,
2013-06-30 22:04:00,70.7,52.8,30.08,East,84,1.0,6.0,53,0.00,,---,0.00,VWS V14.01,2013-07-01 03:04:00,
2013-06-30 22:09:00,70.6,52.7,30.09,ENE,65,4.0,6.0,53,0.00,,---,0.00,VWS V14.01,2013-07-01 03:09:00,
2013-06-30 22:14:00,70.5,53.1,30.09,East,96,1.0,6.0,54,0.00,,---,0.00,VWS V14.01,2013-07-01 03:14:00,
2013-06-30 22:19:00,70.1,52.7,30.09,ENE,58,3.0,5.0,54,0.00,,---,0.00,VWS V14.01,2013-07-01 03:19:00,
2013-06-30 22:24:00,69.9,53.0,30.09,ENE,59,2.0,7.0,55,0.00,,---,0.00,VWS V14.01,2013-07-01 03:24:00,
2013-06-30 22:29:00,69.7,52.8,30.10,ENE,70,0.0,7.0,55,0.00,,---,0.00,VWS V14.01,2013-07-01 03:29:00,
2013-06-30 22:34:00,69.5,53.1,30.10,ESE,115,0.0,2.0,56,0.00,,---,0.00,VWS V14.01,2013-07-01 03:34:00,
2013-06-30 22:39:00,69.2,52.8,30.10,ESE,115,0.0,2.0,56,0.00,,---,0.00,VWS V14.01,2013-07-01 03:39:00,
2013-06-30 22:44:00,68.9,53.1,30.10,NE,41,0.0,3.0,57,0.00,,---,0.00,VWS V14.01,2013-07-01 03:44:00,
2013-06-30 22:49:00,68.9,53.1,30.10,ENE,76,2.0,4.0,57,0.00,,---,0.00,VWS V14.01,2013-07-01 03:49:00,
2013-06-30 22:54:00,68.8,53.4,30.10,ENE,66,1.0,4.0,58,0.00,,---,0.00,VWS V14.01,2013-07-01 03:54:00,
2013-06-30 22:59:00,68.7,53.3,30.10,North,7,0.0,5.0,58,0.00,,---,0.00,VWS V14.01,2013-07-01 03:59:00,
2013-06-30 23:01:00,68.6,53.2,30.10,NNE,13,0.0,0.0,58,0.00,,---,0.00,VWS V14.01,2013-07-01 04:01:00,
2013-06-30 23:03:00,68.6,53.2,30.10,NNE,13,0.0,0.0,58,0.00,,---,0.00,VWS V14.01,2013-07-01 04:03:00,
2013-06-30 23:05:00,68.4,53.5,30.10,NE,53,1.0,3.0,59,0.00,,---,0.00,VWS V14.01,2013-07-01 04:05:00,
2013-06-30 23:07:00,68.4,53.5,30.10,NE,50,2.0,4.0,59,0.00,,---,0.00,VWS V14.01,2013-07-01 04:07:00,
2013-06-30 23:12:00,68.4,53.5,30.10,NNE,20,0.0,5.0,59,0.00,,---,0.00,VWS V14.01,2013-07-01 04:12:00,
2013-06-30 23:17:00,68.3,53.4,30.10,NNE,30,0.0,5.0,59,0.00,,---,0.00,VWS V14.01,2013-07-01 04:17:00,
2013-06-30 23:22:00,68.1,53.7,30.10,ENE,71,1.0,5.0,60,0.00,,---,0.00,VWS V14.01,2013-07-01 04:22:00,
2013-06-30 23:27:00,68.0,53.6,30.10,East,92,1.0,5.0,60,0.00,,---,0.00,VWS V14.01,2013-07-01 04:27:00,
2013-06-30 23:32:00,67.7,53.8,30.10,ENE,76,1.0,1.0,61,0.00,,---,0.00,VWS V14.01,2013-07-01 04:32:00,
2013-06-30 23:37:00,67.5,53.6,30.10,ENE,77,0.0,1.0,61,0.00,,---,0.00,VWS V14.01,2013-07-01 04:37:00,
2013-06-30 23:42:00,67.2,53.8,30.10,NE,50,1.0,3.0,62,0.00,,---,0.00,VWS V14.01,2013-07-01 04:42:00,
2013-06-30 23:47:00,67.1,53.7,30.10,NNE,23,0.0,1.0,62,0.00,,---,0.00,VWS V14.01,2013-07-01 04:47:00,
2013-06-30 23:52:00,67.0,53.6,30.11,NE,42,2.0,2.0,62,0.00,,---,0.00,VWS V14.01,2013-07-01 04:52:00,
2013-06-30 23:57:00,67.1,53.7,30.10,WNW,299,1.0,3.0,62,0.00,,---,0.00,VWS V14.01,2013-07-01 04:57:00,